When you browse on this site, cookies collect data to enhance your experience and personalize the content and advertising you see.
Visit our Privacy Policy to learn more. By continuing to use the site, you agree to this use of cookies and data.
  • In Switzerland
  • List of Countries
  • For 7 days
  • Water Temperature
  • Satellite Maps
  • Weather Map
  • Weather Widgets
  • user-avatar
    Login

    Hourly Weather Dinagepoor

    Today, 16 July, Tuesday

    Time Temperature Precipitation Wind Pressure Humidity
    00:00 +30°C° 0 mm 2 mps 748 mmHg 83%
    01:00 +30°C° 0.7 mm 2 mps 748 mmHg 83%
    02:00 +30°C° 0.7 mm 2 mps 747 mmHg 83%
    03:00 +30°C° 0.7 mm 2 mps 747 mmHg 83%
    04:00 +30°C° 0.4 mm 2 mps 747 mmHg 84%
    05:00 +30°C° 0.4 mm 3 mps 747 mmHg 85%
    06:00 +29°C° 0 mm 2 mps 748 mmHg 89%
    07:00 +31°C° 1.7 mm 2 mps 748 mmHg 83%
    08:00 +32°C° 1.7 mm 2 mps 748 mmHg 77%
    09:00 +34°C° 1.7 mm 2 mps 748 mmHg 71%
    10:00 +36°C° 0.2 mm 2 mps 748 mmHg 63%
    11:00 +37°C° 0.2 mm 2 mps 748 mmHg 55%
    12:00 +37°C° 0 mm 1 mps 749 mmHg 50%
    13:00 +37°C° 0.1 mm 1 mps 748 mmHg 50%
    14:00 +37°C° 0.1 mm 1 mps 748 mmHg 49%
    15:00 +37°C° 0.1 mm 1 mps 747 mmHg 49%
    16:00 +37°C° 0.1 mm 1 mps 746 mmHg 53%
    17:00 +37°C° 0.1 mm 2 mps 746 mmHg 56%
    18:00 +37°C° 0.1 mm 2 mps 746 mmHg 60%
    19:00 +36°C° 0.4 mm 2 mps 746 mmHg 64%
    20:00 +34°C° 0.4 mm 1 mps 747 mmHg 68%
    21:00 +33°C° 0.4 mm 1 mps 748 mmHg 72%
    22:00 +33°C° 0.5 mm 1 mps 748 mmHg 73%
    23:00 +32°C° 0.5 mm 2 mps 748 mmHg 74%

    Tomorrow, 17 July, Wednesday

    Time Temperature Precipitation Wind Pressure Humidity
    00:00 +32°C° 0.5 mm 2 mps 748 mmHg 75%
    01:00 +32°C° 0.4 mm 2 mps 748 mmHg 76%
    02:00 +31°C° 0.4 mm 2 mps 747 mmHg 78%
    03:00 +31°C° 0.4 mm 1 mps 747 mmHg 80%
    04:00 +31°C° 0.2 mm 1 mps 747 mmHg 79%
    05:00 +31°C° 0.2 mm 1 mps 747 mmHg 79%
    06:00 +31°C° 0.2 mm 1 mps 747 mmHg 79%
    07:00 +32°C° 0.5 mm 1 mps 748 mmHg 73%
    08:00 +33°C° 0.5 mm 1 mps 748 mmHg 67%
    09:00 +35°C° 0.5 mm 1 mps 748 mmHg 61%
    10:00 +36°C° 0.7 mm 1 mps 748 mmHg 56%
    11:00 +37°C° 0.7 mm 1 mps 748 mmHg 50%
    12:00 +39°C° 0.7 mm 1 mps 748 mmHg 44%
    13:00 +39°C° 0 mm 2 mps 748 mmHg 46%
    14:00 +39°C° 0 mm 2 mps 747 mmHg 47%
    15:00 +38°C° 0 mm 2 mps 746 mmHg 48%
    16:00 +38°C° 0 mm 2 mps 746 mmHg 49%
    17:00 +37°C° 0 mm 1 mps 746 mmHg 50%
    18:00 +37°C° 0 mm 1 mps 746 mmHg 51%
    19:00 +36°C° 0 mm 1 mps 746 mmHg 55%
    20:00 +35°C° 0 mm 1 mps 747 mmHg 59%
    21:00 +34°C° 0 mm 1 mps 747 mmHg 63%
    22:00 +35°C° 0 mm 2 mps 747 mmHg 65%
    23:00 +35°C° 0 mm 2 mps 747 mmHg 67%

    Day after tomorrow, 18 July, Thursday

    Time Temperature Precipitation Wind Pressure Humidity
    00:00 +34°C° 0 mm 2 mps 747 mmHg 69%
    01:00 +34°C° 0.1 mm 2 mps 747 mmHg 71%
    02:00 +32°C° 0.1 mm 2 mps 747 mmHg 73%
    03:00 +32°C° 0.1 mm 2 mps 746 mmHg 75%
    04:00 +31°C° 1.3 mm 2 mps 747 mmHg 77%
    05:00 +31°C° 1.3 mm 2 mps 747 mmHg 78%
    06:00 +31°C° 1.3 mm 2 mps 747 mmHg 79%
    07:00 +32°C° 1.4 mm 2 mps 748 mmHg 74%
    08:00 +35°C° 1.4 mm 3 mps 748 mmHg 68%
    09:00 +36°C° 1.4 mm 3 mps 748 mmHg 63%
    10:00 +37°C° 0.9 mm 2 mps 748 mmHg 59%
    11:00 +37°C° 0.9 mm 2 mps 748 mmHg 55%
    12:00 +38°C° 0.9 mm 2 mps 748 mmHg 50%
    13:00 +38°C° 0.1 mm 2 mps 747 mmHg 50%
    14:00 +38°C° 0.1 mm 2 mps 746 mmHg 50%
    15:00 +38°C° 0.1 mm 2 mps 746 mmHg 49%
    16:00 +38°C° 0 mm 2 mps 745 mmHg 53%
    17:00 +37°C° 0 mm 2 mps 745 mmHg 56%
    18:00 +37°C° 0 mm 2 mps 745 mmHg 59%
    19:00 +36°C° 0 mm 2 mps 745 mmHg 63%
    20:00 +35°C° 0 mm 2 mps 746 mmHg 67%
    21:00 +34°C° 0 mm 2 mps 746 mmHg 71%
    22:00 +34°C° 0 mm 2 mps 746 mmHg 72%
    23:00 +34°C° 0 mm 2 mps 746 mmHg 74%

    19 July, Friday

    Time Temperature Precipitation Wind Pressure Humidity
    00:00 +32°C° 0 mm 2 mps 747 mmHg 75%
    01:00 +33°C° 1.5 mm 3 mps 746 mmHg 76%
    02:00 +33°C° 1.5 mm 3 mps 746 mmHg 76%
    03:00 +33°C° 1.5 mm 3 mps 746 mmHg 77%
    04:00 +31°C° 0.2 mm 3 mps 746 mmHg 78%
    05:00 +31°C° 0.2 mm 3 mps 747 mmHg 79%
    06:00 +30°C° 0.2 mm 3 mps 747 mmHg 81%
    07:00 +32°C° 0.8 mm 4 mps 748 mmHg 77%
    08:00 +33°C° 0.8 mm 4 mps 748 mmHg 73%
    09:00 +34°C° 0.8 mm 4 mps 749 mmHg 70%
    10:00 +36°C° 0.7 mm 4 mps 749 mmHg 65%
    11:00 +37°C° 0.7 mm 3 mps 748 mmHg 59%
    12:00 +38°C° 0.7 mm 3 mps 748 mmHg 54%
    13:00 +38°C° 0.2 mm 3 mps 748 mmHg 54%
    14:00 +38°C° 0.2 mm 3 mps 747 mmHg 53%
    15:00 +39°C° 0.2 mm 3 mps 746 mmHg 53%
    16:00 +38°C° 0.4 mm 2 mps 746 mmHg 56%
    17:00 +37°C° 0.4 mm 2 mps 746 mmHg 60%
    18:00 +36°C° 0.4 mm 1 mps 745 mmHg 63%
    19:00 +36°C° 0.8 mm 2 mps 746 mmHg 67%
    20:00 +35°C° 0.8 mm 2 mps 746 mmHg 70%
    21:00 +34°C° 0.8 mm 2 mps 747 mmHg 73%
    22:00 +34°C° 0.6 mm 2 mps 747 mmHg 74%
    23:00 +34°C° 0.6 mm 2 mps 747 mmHg 76%

    20 July, Saturday

    Time Temperature Precipitation Wind Pressure Humidity
    00:00 +32°C° 0.6 mm 2 mps 747 mmHg 77%
    01:00 +33°C° 0.5 mm 3 mps 747 mmHg 77%
    02:00 +33°C° 0.5 mm 3 mps 747 mmHg 77%
    03:00 +32°C° 0.5 mm 4 mps 747 mmHg 76%
    04:00 +32°C° 0 mm 4 mps 747 mmHg 78%
    05:00 +31°C° 0 mm 3 mps 748 mmHg 79%
    06:00 +30°C° 0 mm 3 mps 748 mmHg 80%
    07:00 +33°C° 0 mm 3 mps 748 mmHg 75%
    08:00 +34°C° 0 mm 3 mps 749 mmHg 71%
    09:00 +35°C° 0 mm 4 mps 749 mmHg 66%
    10:00 +36°C° 0.1 mm 4 mps 749 mmHg 61%
    11:00 +38°C° 0.1 mm 4 mps 748 mmHg 55%
    12:00 +40°C° 0.1 mm 4 mps 748 mmHg 50%
    13:00 +40°C° 0 mm 4 mps 748 mmHg 49%
    14:00 +40°C° 0 mm 4 mps 747 mmHg 48%
    15:00 +41°C° 0 mm 4 mps 746 mmHg 48%
    16:00 +39°C° 0 mm 3 mps 746 mmHg 49%
    17:00 +39°C° 0 mm 3 mps 746 mmHg 51%
    18:00 +38°C° 0 mm 3 mps 746 mmHg 53%
    19:00 +37°C° 0 mm 3 mps 746 mmHg 56%
    20:00 +36°C° 0 mm 3 mps 746 mmHg 59%
    21:00 +35°C° 0 mm 4 mps 746 mmHg 62%
    22:00 +35°C° 0.1 mm 4 mps 746 mmHg 64%
    23:00 +34°C° 0.1 mm 4 mps 746 mmHg 67%

    21 July, Sunday

    Time Temperature Precipitation Wind Pressure Humidity
    00:00 +34°C° 0.1 mm 5 mps 746 mmHg 70%
    01:00 +33°C° 0.2 mm 5 mps 746 mmHg 72%
    02:00 +33°C° 0.2 mm 5 mps 746 mmHg 74%
    03:00 +32°C° 0.2 mm 5 mps 745 mmHg 76%
    04:00 +32°C° 0.2 mm 5 mps 746 mmHg 78%
    05:00 +32°C° 0.2 mm 5 mps 746 mmHg 79%
    06:00 +32°C° 0.2 mm 5 mps 746 mmHg 80%
    07:00 +32°C° 0.3 mm 4 mps 746 mmHg 78%
    08:00 +33°C° 0.3 mm 4 mps 747 mmHg 75%
    09:00 +34°C° 0.3 mm 4 mps 747 mmHg 73%
    10:00 +34°C° 2 mm 3 mps 747 mmHg 73%
    11:00 +34°C° 2 mm 3 mps 747 mmHg 73%
    12:00 +34°C° 2 mm 2 mps 746 mmHg 73%
    13:00 +35°C° 0.9 mm 3 mps 746 mmHg 72%
    14:00 +35°C° 0.9 mm 4 mps 745 mmHg 70%
    15:00 +35°C° 0.9 mm 4 mps 745 mmHg 69%
    16:00 +35°C° 0.2 mm 4 mps 745 mmHg 71%
    17:00 +34°C° 0.2 mm 3 mps 745 mmHg 73%
    18:00 +34°C° 0.2 mm 3 mps 745 mmHg 75%
    19:00 +33°C° 0.4 mm 3 mps 745 mmHg 77%
    20:00 +32°C° 0.4 mm 2 mps 746 mmHg 78%
    21:00 +31°C° 0.4 mm 2 mps 746 mmHg 80%
    22:00 +31°C° 1.5 mm 3 mps 746 mmHg 80%
    23:00 +31°C° 1.5 mm 3 mps 746 mmHg 79%
    Show more